Weather History for Grosse Ile, MI

Change the Weather History Date:

Monday, December 10, 2012

  Actual Average (KDTW) Record (KDTW)
Temperature  
Mean Temperature 38 °F 32 °F  
Max Temperature 42 °F 38 °F 64 °F (1971)
Min Temperature 33 °F 26 °F -9 °F (1876)
Degree Days  
Heating Degree Days 28 33  
Month to date heating degree days 317  
Since 1 July heating degree days 1532  
Cooling Degree Days 0 0  
Month to date cooling degree days 0  
Year to date cooling degree days 803  
Moisture  
Dew Point 33 °F    
Average Humidity 80    
Maximum Humidity 93    
Minimum Humidity 66    
Precipitation  
Precipitation 0.03 in 0.08 in 0.84 in (2003)
Month to date precipitation 0.83  
Year to date precipitation 31.84  
Snow  
Snow 0.00 in 0.20 in 5.20 in (1966)
Month to date snowfall 2.3  
Since 1 July snowfall 3.9  
Snow Depth -    
Sea Level Pressure  
Sea Level Pressure 29.68 in    
Wind  
Wind Speed 5 mph (WNW)    
Max Wind Speed 15 mph    
Max Gust Speed 20 mph    
Visibility 8 miles    
Events Rain    
T = Trace of Precipitation, MM = Missing Value Source: NWS Daily Summary

Daily Weather History Graph

Daily Weather History Graph

Search for Another Location

Airport:

Trip Planner

Search our weather history database for the weather conditions in past years. The results will help you decide how hot, cold, wet, or windy it might be!

Date:

Astronomy

Dec. 10, 2012 Rise Set
Actual Time 7:50 AM EST 5:00 PM EST
Civil Twilight 7:18 AM EST 5:32 PM EST
Nautical Twilight 6:43 AM EST 6:07 PM EST
Astronomical Twilight 6:09 AM EST 6:41 PM EST
Moon 4:30 AM EST (12/10) 2:51 PM EST (12/10)
Length of Visible Light 10h 13m
Length of Day
9h 10m
Waning Crescent, 10% of the Moon is Illuminated
Dec 10
Waning Crescent
Dec 13
New
Dec 20
First Quarter
Dec 28
Full
Jan 4
Last Quarter

Hourly Weather History & Observations

Time (EST) Temp. Windchill Dew Point Humidity Pressure Visibility Wind Dir Wind Speed Gust Speed Precip Events Conditions
12:14 AM 42.8 °F - 41.0 °F 93% 29.62 in 0.2 mi Calm Calm - N/A Rain Light Rain
12:34 AM 42.8 °F - 39.2 °F 87% 29.62 in 0.2 mi Calm Calm - 0.01 in Rain Light Rain
12:54 AM 42.8 °F - 39.2 °F 87% 29.62 in 0.5 mi Calm Calm - 0.02 in Rain Rain
1:14 AM 41.0 °F 38.0 °F 39.2 °F 93% 29.62 in 0.5 mi NW 4.6 mph - 0.01 in Rain Light Rain
1:34 AM 39.2 °F 37.0 °F 37.4 °F 93% 29.62 in 0.8 mi NW 3.5 mph - 0.01 in   Overcast
1:54 AM 39.2 °F - 37.4 °F 93% 29.61 in 0.8 mi Calm Calm - 0.01 in   Overcast
2:14 AM 39.2 °F - 37.4 °F 93% 29.61 in 0.8 mi Calm Calm - N/A   Overcast
2:34 AM 39.2 °F - 37.4 °F 93% 29.61 in 0.8 mi Calm Calm - N/A   Overcast
2:54 AM 39.2 °F - 37.4 °F 93% 29.61 in 1.8 mi Calm Calm - N/A   Overcast
3:14 AM 39.2 °F 37.0 °F 37.4 °F 93% 29.62 in 3.0 mi West 3.5 mph - N/A   Overcast
3:54 AM 39.2 °F 34.2 °F 37.4 °F 93% 29.60 in 5.0 mi West 6.9 mph - N/A   Overcast
4:14 AM 39.2 °F 35.9 °F 37.4 °F 93% 29.60 in 5.0 mi West 4.6 mph - N/A   Overcast
4:34 AM 39.2 °F 35.0 °F 37.4 °F 93% 29.60 in 5.0 mi West 5.8 mph - N/A   Overcast
4:54 AM 39.2 °F 34.2 °F 37.4 °F 93% 29.60 in 5.0 mi West 6.9 mph - N/A   Overcast
5:14 AM 41.0 °F 39.0 °F 39.2 °F 93% 29.61 in 4.0 mi WSW 3.5 mph - N/A   Overcast
5:34 AM 41.0 °F - 39.2 °F 93% 29.60 in 4.0 mi Calm Calm - N/A   Overcast
5:54 AM 41.0 °F 39.0 °F 39.2 °F 93% 29.60 in 3.0 mi WSW 3.5 mph - N/A   Overcast
6:14 AM 41.0 °F 39.0 °F 39.2 °F 93% 29.61 in 3.0 mi WSW 3.5 mph - N/A   Overcast
6:34 AM 41.0 °F 37.1 °F 39.2 °F 93% 29.61 in 5.0 mi West 5.8 mph - N/A   Overcast
6:54 AM 42.8 °F 38.6 °F 39.2 °F 87% 29.61 in 5.0 mi West 6.9 mph - N/A   Overcast
7:14 AM 42.8 °F 38.6 °F 39.2 °F 87% 29.62 in 7.0 mi West 6.9 mph - N/A   Overcast
7:34 AM 42.8 °F 37.5 °F 39.2 °F 87% 29.63 in 10.0 mi WSW 9.2 mph - N/A   Overcast
7:54 AM 42.8 °F 37.5 °F 37.4 °F 81% 29.63 in 10.0 mi WSW 9.2 mph - N/A   Overcast
8:14 AM 41.0 °F 35.2 °F 37.4 °F 87% 29.63 in 10.0 mi West 9.2 mph - N/A   Overcast
8:34 AM 41.0 °F 34.3 °F 37.4 °F 87% 29.64 in 10.0 mi West 11.5 mph - N/A   Overcast
8:54 AM 41.0 °F 35.8 °F 35.6 °F 81% 29.65 in 10.0 mi West 8.1 mph - N/A   Overcast
9:14 AM 41.0 °F 34.7 °F 35.6 °F 81% 29.65 in 10.0 mi West 10.4 mph - N/A   Overcast
9:34 AM 41.0 °F 36.4 °F 35.6 °F 81% 29.65 in 10.0 mi West 6.9 mph - N/A   Overcast
9:54 AM 41.0 °F 35.2 °F 35.6 °F 81% 29.65 in 10.0 mi West 9.2 mph - N/A   Overcast
10:14 AM 41.0 °F 33.1 °F 35.6 °F 81% 29.65 in 10.0 mi WNW 15.0 mph 19.6 mph N/A   Overcast
10:35 AM 41.0 °F 36.4 °F 35.6 °F 81% 29.65 in 10.0 mi West 6.9 mph - N/A   Overcast
10:54 AM 41.0 °F 35.8 °F 35.6 °F 81% 29.65 in 10.0 mi West 8.1 mph - N/A   Overcast
11:14 AM 41.0 °F 35.8 °F 35.6 °F 81% 29.65 in 10.0 mi West 8.1 mph - N/A   Overcast
11:34 AM 41.0 °F 33.9 °F 35.6 °F 81% 29.65 in 10.0 mi West 12.7 mph - N/A   Overcast
11:54 AM 42.8 °F 36.6 °F 35.6 °F 76% 29.65 in 10.0 mi West 11.5 mph - N/A   Overcast
12:14 PM 42.8 °F 37.5 °F 33.8 °F 70% 29.64 in 10.0 mi West 9.2 mph 16.1 mph N/A   Overcast
12:34 PM 41.0 °F 34.7 °F 33.8 °F 76% 29.63 in 10.0 mi West 10.4 mph - N/A   Overcast
12:54 PM 42.8 °F 37.5 °F 33.8 °F 70% 29.63 in 10.0 mi WNW 9.2 mph - N/A   Mostly Cloudy
1:14 PM 42.8 °F 37.5 °F 33.8 °F 70% 29.63 in 10.0 mi West 9.2 mph 18.4 mph N/A   Scattered Clouds
1:34 PM 42.8 °F 36.2 °F 33.8 °F 70% 29.63 in 10.0 mi WNW 12.7 mph 18.4 mph N/A   Scattered Clouds
1:54 PM 42.8 °F 36.6 °F 33.8 °F 70% 29.63 in 10.0 mi NW 11.5 mph 17.3 mph N/A   Mostly Cloudy
2:14 PM 42.8 °F 35.8 °F 33.8 °F 70% 29.63 in 10.0 mi WNW 13.8 mph 19.6 mph N/A   Scattered Clouds
2:34 PM 42.8 °F 37.5 °F 32.0 °F 66% 29.64 in 10.0 mi WNW 9.2 mph - N/A   Overcast
2:54 PM 42.8 °F 36.6 °F 32.0 °F 66% 29.65 in 10.0 mi NW 11.5 mph - N/A   Overcast
3:13 PM 41.0 °F 35.2 °F 33.8 °F 76% 29.65 in 10.0 mi NW 9.2 mph - N/A   Overcast
3:34 PM 41.0 °F 36.4 °F 32.0 °F 70% 29.65 in 10.0 mi WNW 6.9 mph - N/A   Mostly Cloudy
3:54 PM 39.2 °F 33.0 °F 33.8 °F 81% 29.67 in 10.0 mi NNW 9.2 mph - N/A   Mostly Cloudy
4:14 PM 37.4 °F 30.3 °F 32.0 °F 81% 29.69 in 10.0 mi NNW 10.4 mph - N/A   Mostly Cloudy
4:34 PM 37.4 °F 30.3 °F 30.2 °F 75% 29.69 in 10.0 mi NW 10.4 mph 16.1 mph N/A   Overcast
4:55 PM 35.6 °F 27.1 °F 30.2 °F 81% 29.69 in 10.0 mi NNW 12.7 mph - N/A   Mostly Cloudy
5:14 PM 35.6 °F 27.5 °F 28.4 °F 75% 29.70 in 10.0 mi NNW 11.5 mph 17.3 mph N/A   Mostly Cloudy
5:34 PM 35.6 °F 28.0 °F 28.4 °F 75% 29.71 in 10.0 mi NNW 10.4 mph - N/A   Overcast
5:54 PM 35.6 °F 27.5 °F 28.4 °F 75% 29.73 in 10.0 mi NNW 11.5 mph - N/A   Mostly Cloudy
6:14 PM 35.6 °F 26.6 °F 26.6 °F 70% 29.74 in 10.0 mi NNW 13.8 mph - N/A   Overcast
6:34 PM 35.6 °F 28.6 °F 26.6 °F 70% 29.75 in 10.0 mi NNW 9.2 mph - N/A   Overcast
6:54 PM 33.8 °F 27.0 °F 26.6 °F 75% 29.76 in 10.0 mi NW 8.1 mph - N/A   Mostly Cloudy
7:14 PM 33.8 °F 27.7 °F 26.6 °F 75% 29.77 in 10.0 mi NW 6.9 mph - N/A   Mostly Cloudy
7:34 PM 33.8 °F 27.7 °F 26.6 °F 75% 29.77 in 10.0 mi NW 6.9 mph - N/A   Overcast
7:54 PM 33.8 °F 28.6 °F 26.6 °F 75% 29.78 in 10.0 mi NW 5.8 mph - N/A   Overcast
8:14 PM 33.8 °F 27.0 °F 26.6 °F 75% 29.79 in 10.0 mi NW 8.1 mph - N/A   Overcast
8:34 PM 33.8 °F 29.6 °F 26.6 °F 75% 29.79 in 10.0 mi NW 4.6 mph - N/A   Overcast
8:54 PM 33.8 °F 28.6 °F 26.6 °F 75% 29.79 in 10.0 mi NW 5.8 mph - N/A   Overcast
9:14 PM 35.6 °F 31.7 °F 26.6 °F 70% 29.80 in 10.0 mi WNW 4.6 mph - N/A   Overcast
9:54 PM 35.6 °F 30.7 °F 26.6 °F 70% 29.81 in 10.0 mi NW 5.8 mph - N/A   Overcast
10:14 PM 35.6 °F 29.9 °F 26.6 °F 70% 29.81 in 10.0 mi WNW 6.9 mph - N/A   Overcast
10:34 PM 35.6 °F 29.9 °F 26.6 °F 70% 29.82 in 10.0 mi NW 6.9 mph - N/A   Overcast
10:54 PM 33.8 °F 27.0 °F 26.6 °F 75% 29.83 in 10.0 mi NW 8.1 mph - N/A   Overcast
11:15 PM 33.8 °F 25.8 °F 24.8 °F 70% 29.84 in 10.0 mi NW 10.4 mph - N/A   Overcast
11:34 PM 33.8 °F 25.8 °F 24.8 °F 70% 29.85 in 10.0 mi NW 10.4 mph - N/A   Overcast
11:54 PM 33.8 °F 27.0 °F 24.8 °F 70% 29.85 in 10.0 mi NW 8.1 mph - N/A   Overcast